Location: Rounton
(54.4000°N, 1.3500°W)
Time: 22:19:02
(UTC+00:00)

Tiros 1 despin weight - Visible Passes

Search period start: 02 March 2024 00:00
Search period end: 12 March 2024 00:00
Orbit: 581 x 624 km, 48.2° (Epoch: 01 March)

Date Brightness Start Highest point End Pass type
(mag) Time Alt. Az. Time Alt. Az. Time Alt. Az.
06 Mar ? 05:53:20 10° SSE 05:54:33 11° SE 05:55:46 10° SE visible
07 Mar ? 06:02:50 10° S 06:05:35 16° SSE 06:08:18 10° ESE visible
09 Mar ? 04:46:10 10° SSE 04:47:37 11° SE 04:49:03 10° SE visible
10 Mar ? 04:55:48 10° S 04:58:37 17° SSE 05:01:26 10° ESE visible
11 Mar ? 05:06:14 10° SSW 05:09:41 22° SSE 05:13:08 10° ESE visible
